Weather History for Grants-Milan, NM

Change the Weather History Date:

Tuesday, November 20, 2012

  Actual Average Record
Temperature  
Mean Temperature 38 °F -  
Max Temperature 63 °F 54 °F 70 °F (1955)
Min Temperature 14 °F 19 °F -3 °F (1956)
Degree Days  
Heating Degree Days 26    
Moisture  
Dew Point 12 °F    
Average Humidity 41    
Maximum Humidity 82    
Minimum Humidity 10    
Precipitation  
Precipitation 0.00 in - - ()
Sea Level Pressure  
Sea Level Pressure 30.35 in    
Wind  
Wind Speed 6 mph (West)    
Max Wind Speed 10 mph    
Max Gust Speed -    
Visibility 10 miles    
Events      
Averages and records for this station are not official NWS values.
T = Trace of Precipitation, MM = Missing Value Source: NWS Daily Summary

Daily Weather History Graph

Daily Weather History Graph

Search for Another Location

Airport:

Trip Planner

Search our weather history database for the weather conditions in past years. The results will help you decide how hot, cold, wet, or windy it might be!

Date:

Astronomy

Nov. 20, 2012 Rise Set
Actual Time 6:51 AM MST 5:02 PM MST
Civil Twilight 6:24 AM MST 5:29 PM MST
Nautical Twilight 5:53 AM MST 6:00 PM MST
Astronomical Twilight 5:23 AM MST 6:31 PM MST
Moon 12:35 PM MST (11/20) No Moon Set
Length of Visible Light 11h 05m
Length of Day
10h 10m
First Quarter, 52% of the Moon is Illuminated
Nov 20
First Quarter
Nov 28
Full
Dec 6
Last Quarter
Dec 13
New
Dec 19
First Quarter

Hourly Weather History & Observations

Time (MST) Temp. Windchill Dew Point Humidity Pressure Visibility Wind Dir Wind Speed Gust Speed Precip Events Conditions
12:15 AM 23.9 °F 15.8 °F 15.4 °F 70% 30.41 in 10.0 mi NW 6.9 mph - N/A   Clear
12:35 AM 22.5 °F 15.1 °F 14.9 °F 73% 30.41 in 10.0 mi NNW 5.8 mph - N/A   Clear
12:55 AM 21.0 °F 13.4 °F 14.2 °F 75% 30.41 in 10.0 mi NNW 5.8 mph - N/A   Clear
1:15 AM 20.3 °F 10.6 °F 14.5 °F 78% 30.41 in 10.0 mi NW 8.1 mph - N/A   Clear
1:35 AM 23.2 °F 15.0 °F 14.9 °F 71% 30.41 in 10.0 mi NW 6.9 mph - N/A   Clear
5:15 AM 15.8 °F 7.2 °F 10.8 °F 80% 30.40 in 10.0 mi NNW 5.8 mph - N/A   Clear
5:35 AM 16.2 °F 6.5 °F 11.5 °F 82% 30.40 in 10.0 mi NW 6.9 mph - N/A   Clear
5:55 AM 18.1 °F 7.9 °F 12.6 °F 79% 30.41 in 10.0 mi NW 8.1 mph - N/A   Clear
6:15 AM 18.3 °F 8.2 °F 12.9 °F 79% 30.41 in 10.0 mi NW 8.1 mph - N/A   Clear
6:35 AM 17.2 °F 6.8 °F 11.8 °F 79% 30.41 in 10.0 mi NNW 8.1 mph - N/A   Clear
6:55 AM 14.9 °F 6.1 °F 9.5 °F 79% 30.42 in 10.0 mi NNW 5.8 mph - N/A   Clear
7:15 AM 15.6 °F 7.0 °F 10.6 °F 80% 30.43 in 10.0 mi NW 5.8 mph - N/A   Clear
7:35 AM 19.4 °F 12.8 °F 12.7 °F 75% 30.43 in 10.0 mi NW 4.6 mph - N/A   Clear
7:55 AM 22.5 °F 15.1 °F 14.7 °F 72% 30.43 in 10.0 mi NW 5.8 mph - N/A   Clear
8:15 AM 25.7 °F 18.0 °F 15.4 °F 65% 30.43 in 10.0 mi NNW 6.9 mph - N/A   Clear
8:35 AM 27.5 °F 21.1 °F 15.4 °F 61% 30.43 in 10.0 mi NW 5.8 mph - N/A   Clear
8:55 AM 31.1 °F 27.7 °F 16.5 °F 55% 30.43 in 10.0 mi NW 3.5 mph - N/A   Clear
9:15 AM 33.8 °F - 18.3 °F 53% 30.43 in 10.0 mi Calm Calm - N/A   Clear
9:35 AM 37.2 °F 34.7 °F 20.5 °F 51% 30.42 in 10.0 mi North 3.5 mph - N/A   Clear
9:55 AM 39.9 °F - 20.1 °F 45% 30.42 in 10.0 mi Calm Calm - N/A   Clear
10:15 AM 42.6 °F - 20.7 °F 42% 30.42 in 10.0 mi Calm Calm - N/A   Clear
10:35 AM 44.4 °F - 21.0 °F 39% 30.41 in 10.0 mi Calm Calm - N/A   Clear
10:55 AM 47.1 °F - 20.8 °F 35% 30.40 in 10.0 mi Calm Calm - N/A   Clear
11:15 AM 50.2 °F - 20.5 °F 31% 30.40 in 10.0 mi Calm Calm - N/A   Clear
11:35 AM 54.5 °F - 21.0 °F 27% 30.38 in 10.0 mi Calm Calm - N/A   Clear
11:55 AM 56.3 °F - 20.8 °F 25% 30.36 in 10.0 mi SE 5.8 mph - N/A   Clear
12:15 PM 57.7 °F - 14.2 °F 18% 30.35 in 10.0 mi South 3.5 mph - N/A   Clear
12:35 PM 59.4 °F - 16.5 °F 19% 30.33 in 10.0 mi SE 6.9 mph - N/A   Clear
12:55 PM 59.9 °F - 17.4 °F 19% 30.32 in 10.0 mi SE 4.6 mph - N/A   Clear
1:15 PM 61.2 °F - 15.1 °F 17% 30.31 in 10.0 mi SE 6.9 mph - N/A   Clear
1:35 PM 62.1 °F - 10.2 °F 13% 30.30 in 10.0 mi SE 5.8 mph - N/A   Clear
1:55 PM 63.3 °F - 9.0 °F 12% 30.29 in 10.0 mi SSE 5.8 mph - N/A   Clear
2:15 PM 63.5 °F - 8.6 °F 12% 30.28 in 10.0 mi SE 6.9 mph - N/A   Clear
2:35 PM 63.0 °F - 4.1 °F 10% 30.28 in 10.0 mi ESE 8.1 mph - N/A   Clear
2:55 PM 63.0 °F - 4.8 °F 10% 30.28 in 10.0 mi SE 8.1 mph - N/A   Clear
3:15 PM 63.5 °F - 5.5 °F 10% 30.28 in 10.0 mi SE 10.4 mph - N/A   Clear
3:35 PM 62.8 °F - 6.8 °F 11% 30.28 in 10.0 mi SE 10.4 mph - N/A   Clear
3:55 PM 61.9 °F - 7.3 °F 12% 30.28 in 10.0 mi SE 8.1 mph - N/A   Clear
4:15 PM 60.8 °F - 8.2 °F 13% 30.28 in 10.0 mi SE 8.1 mph - N/A   Clear
4:35 PM 59.2 °F - 9.5 °F 14% 30.28 in 10.0 mi SE 9.2 mph - N/A   Clear
4:55 PM 54.0 °F - 10.4 °F 18% 30.28 in 10.0 mi SSE 5.8 mph - N/A   Clear
5:15 PM 48.9 °F - 10.4 °F 21% 30.28 in 10.0 mi South 8.1 mph - N/A   Clear
5:35 PM 46.2 °F 42.7 °F 9.9 °F 23% 30.29 in 10.0 mi South 6.9 mph - N/A   Clear
5:55 PM 43.5 °F 38.9 °F 10.0 °F 26% 30.29 in 10.0 mi South 8.1 mph - N/A   Clear
6:15 PM 44.8 °F 41.0 °F 9.5 °F 24% 30.29 in 10.0 mi SSW 6.9 mph - N/A   Clear
6:35 PM 45.5 °F 42.5 °F 9.3 °F 23% 30.29 in 10.0 mi SSW 5.8 mph - N/A   Clear
6:55 PM 42.1 °F 40.2 °F 9.3 °F 26% 30.30 in 10.0 mi South 3.5 mph - N/A   Clear
7:15 PM 43.5 °F 38.9 °F 9.5 °F 25% 30.30 in 10.0 mi SSW 8.1 mph - N/A   Clear
7:35 PM 45.0 °F 41.2 °F 9.5 °F 24% 30.30 in 10.0 mi SSW 6.9 mph - N/A   Clear
7:55 PM 42.8 °F 39.3 °F 10.2 °F 26% 30.30 in 10.0 mi South 5.8 mph - N/A   Clear
8:15 PM 41.2 °F 39.2 °F 11.1 °F 29% 30.30 in 10.0 mi SSW 3.5 mph - N/A   Clear
8:35 PM 34.5 °F 31.6 °F 9.5 °F 35% 30.31 in 10.0 mi NW 3.5 mph - N/A   Clear
8:55 PM 31.1 °F 26.4 °F 8.6 °F 39% 30.32 in 10.0 mi NNW 4.6 mph - N/A   Clear
9:15 PM 31.5 °F 28.1 °F 8.8 °F 39% 30.32 in 10.0 mi NNW 3.5 mph - N/A   Clear
9:35 PM 30.2 °F 26.7 °F 9.3 °F 42% 30.32 in 10.0 mi NW 3.5 mph - N/A   Clear
9:55 PM 27.3 °F 20.9 °F 8.1 °F 44% 30.32 in 10.0 mi NW 5.8 mph - N/A   Clear
10:15 PM 29.8 °F 24.9 °F 8.1 °F 40% 30.32 in 10.0 mi NW 4.6 mph - N/A   Clear
10:35 PM 28.4 °F 22.2 °F 7.5 °F 41% 30.32 in 10.0 mi NNW 5.8 mph - N/A   Clear
10:55 PM 27.5 °F 23.6 °F 7.3 °F 43% 30.30 in 10.0 mi North 3.5 mph - N/A   Clear
11:15 PM 26.8 °F 20.2 °F 7.7 °F 45% 30.30 in 10.0 mi NNW 5.8 mph - N/A   Clear
11:35 PM 25.0 °F 18.1 °F 7.5 °F 48% 30.30 in 10.0 mi NW 5.8 mph - N/A   Clear
11:55 PM 27.0 °F 21.6 °F 7.7 °F 44% 30.30 in 10.0 mi NW 4.6 mph - N/A   Clear